{"data":{"norad_id":60114,"epoch":"2026-09-21T11:56:11.834016Z","epoch_age_seconds":95381,"freshness":"FRESH","line1":"1 60114U 24118B   26264.49735919 -.00000155  00000+0  35816-5 0  9994","line2":"2 60114  53.1594 336.2581 0001243  53.2797 306.8335 15.69707268128743","mean_motion":15.69707268,"eccentricity":0.0001243,"inclination_deg":53.1594,"raan_deg":336.2581,"arg_perigee_deg":53.2797,"mean_anomaly_deg":306.8335,"bstar":3.5816e-6,"rev_number":12874,"period_min":91.736849879961,"perigee_km":358.89705093342,"apogee_km":360.57208580531,"semimajor_km":6737.8715683694,"source":"CELESTRAK","updated_at":"2026-09-22T09:00:49.154658Z"}}